This is the latest recevied weather packets stored in our database for station/object MB7UIK. If no packets are shown the sender has not sent any weather packets the latest 1 day(s).
| Time | Temp. | Humidity | Pressure | Rain* | Wind** | Luminosity | Snow |
|---|---|---|---|---|---|---|---|
| 1777984605 | 15.56° C | 1% | 1011.4 hPa | 0 mm | 1.34 m/s, 49° | - | - |
| 1777984545 | 15.56° C | 100% | 1011.4 hPa | 0 mm | 1.34 m/s, 40° | - | - |
| 1777984485 | 15.56° C | 100% | 1011.4 hPa | 0 mm | 2.24 m/s, 48° | - | - |
| 1777984425 | 15.56° C | 100% | 1011.4 hPa | 0 mm | 3.58 m/s, 48° | - | - |
| 1777984366 | 15.56° C | 100% | 1011.4 hPa | 0 mm | 3.13 m/s, 350° | - | - |
| 1777984332 | 15.56° C | 100% | 1011.4 hPa | 0 mm | 3.13 m/s, 350° | - | - |
| 1777984305 | 15.56° C | 100% | 1011.4 hPa | 0 mm | 0.89 m/s, 355° | - | - |
| 1777984245 | 15.56° C | 100% | 1011.4 hPa | 0 mm | 1.79 m/s, 18° | - | - |
| 1777984185 | 15° C | 100% | 1011.4 hPa | 0 mm | 0.89 m/s, 9° | - | - |
| 1777984125 | 15° C | 100% | 1011.4 hPa | 0 mm | 1.34 m/s, 58° | - | - |
| 1777984065 | 15° C | 100% | 1011.5 hPa | 0 mm | 1.34 m/s, 59° | - | - |
| 1777984033 | 15° C | 100% | 1011.5 hPa | 0 mm | 1.34 m/s, 59° | - | - |
| 1777984004 | 15° C | 100% | 1011.4 hPa | 0 mm | 3.58 m/s, 36° | - | - |
| 1777983944 | 15° C | 100% | 1011.4 hPa | 0 mm | 1.34 m/s, 52° | - | - |
| 1777983884 | 15° C | 100% | 1011.4 hPa | 0 mm | 1.34 m/s, 13° | - | - |
| 1777983825 | 15° C | 100% | 1011.4 hPa | 0 mm | 1.34 m/s, 26° | - | - |
| 1777983765 | 15° C | 100% | 1011.5 hPa | 0 mm | 1.34 m/s, 36° | - | - |
| 1777983731 | 15° C | 100% | 1011.5 hPa | 0 mm | 1.34 m/s, 36° | - | - |
| 1777983705 | 15° C | 100% | 1011.5 hPa | 0 mm | 2.24 m/s, 50° | - | - |
| 1777983644 | 15° C | 100% | 1011.4 hPa | 0 mm | 0.89 m/s, 5° | - | - |
| 1777983584 | 15° C | 100% | 1011.5 hPa | 0 mm | 1.34 m/s, 28° | - | - |
| 1777983524 | 15° C | 100% | 1011.4 hPa | 0 mm | 1.34 m/s, 34° | - | - |
| 1777983464 | 15° C | 100% | 1011.4 hPa | 0 mm | 1.34 m/s, 73° | - | - |
| 1777983432 | 15° C | 100% | 1011.4 hPa | 0 mm | 1.34 m/s, 73° | - | - |
| 1777983406 | 15° C | 1% | 1011.4 hPa | 0 mm | 2.24 m/s, 80° | - | - |
* Rain latest hour (hover to see other rain measurements)
** Current wind speed in m/s (hover to see current wind gust speed)